User: anonymous   Login
Location: Bangkok
(13.7500°N, 100.5170°E)
Time: 17:29:16
(UTC+07:00)
Language:

ERBS - Orbit

View from above orbital plane
View from above orbital plane
View from above satellite
View from above satellite

Ground track
Ground track

The orbit data is extracted from the following two-line orbital elements,

1 15354U 84108B   16341.84642780  .00003138  00000-0  80594-4 0  9998
2 15354  57.0085 245.6677 0017224  96.6682 263.6333 15.42335519768516
Epoch (UTC): 06 December 2016 20:18:51
Eccentricity: 0.0017224
inclination: 57.0085°
perigee height: 427 km
apogee height: 451 km
right ascension of ascending node: 245.6677°
argument of perigee: 96.6682°
revolutions per day: 15.42335519
mean anomaly at epoch: 263.6333°
orbit number at epoch: 76851

The dashed part of the orbit path shows where the satellite is in the earth's shadow,  

DLR